Saint Simons Island, GA

10:47 AM EDT on October 16, 2019 (GMT -0400)
McKinnon

Weather History for KSSI - September, 2019

Change the Weather History Date:

Thursday, September 19, 2019

  Actual Average Record
Temperature  
Mean Temperature 79 °F 78 °F  
Max Temperature 82 °F 84 °F 92 °F (2018)
Min Temperature 76 °F 71 °F 52 °F (1981)
Degree Days  
Heating Degree Days 0 0  
Month to date heating degree days 0 0  
Since 1 July heating degree days 0 0  
Cooling Degree Days 14 13  
Month to date cooling degree days 347 272  
Year to date cooling degree days 2801 2248  
Growing Degree Days 29 (Base 50)    
Moisture  
Dew Point 61 °F    
Average Humidity 55    
Maximum Humidity 62    
Minimum Humidity 48    
Precipitation  
Precipitation 0.00 in 0.18 in 1.98 in (1998)
Month to date precipitation 2.51 3.79  
Year to date precipitation 26.85 33.90  
Snow  
Snow 0.00 in - 0.00 in ()
Month to date snowfall 0.0  
Since 1 July snowfall 0.0  
Since 1 September snowfall 0.0  
Snow Depth 0.00 in    
Sea Level Pressure  
Sea Level Pressure 30.12 in    
Wind  
Wind Speed 15 mph (NE)    
Max Wind Speed 24 mph    
Max Gust Speed 33 mph    
Visibility 10 miles    
Events      
T = Trace of Precipitation, MM = Missing Value Source: NWS Daily Summary

Daily Weather History Graph

Daily Weather History Graph

Search for Another Location

Airport or City:

Astronomy

Sep. 19, 2019 Rise Set
Actual Time 7:11 AM EDT 7:26 PM EDT
Civil Twilight 6:47 AM EDT 7:50 PM EDT
Nautical Twilight 6:19 AM EDT 8:18 PM EDT
Astronomical Twilight 5:50 AM EDT 8:47 PM EDT
Moon 10:54 PM EDT (9/19) 11:55 AM EDT (9/19)
Length of Visible Light 13h 02m
Length of Day
12h 14m
Waning Gibbous, 74% of the Moon is Illuminated
Sep 19
Waning Gibbous
Sep 21
Last Quarter
Sep 28
New
Oct 5
First Quarter
Oct 13
Full

Hourly Weather History & Observations

Time (EDT) Temp. Heat Index Dew Point Humidity Pressure Visibility Wind Dir Wind Speed Gust Speed Precip Events Conditions
12:53 AM 78.1 °F - 61.0 °F 56% 30.08 in 10.0 mi ENE 11.5 mph 25.3 mph N/A   Scattered Clouds
1:53 AM 78.1 °F - 61.0 °F 56% 30.08 in 10.0 mi ENE 16.1 mph 26.5 mph N/A   Scattered Clouds
2:53 AM 78.1 °F - 61.0 °F 56% 30.08 in 10.0 mi ENE 12.7 mph - N/A   Overcast
3:53 AM 79.0 °F - 60.1 °F 52% 30.07 in 10.0 mi ENE 15.0 mph - N/A   Overcast
4:53 AM 78.1 °F - 60.1 °F 54% 30.06 in 10.0 mi ENE 15.0 mph 24.2 mph N/A   Overcast
5:53 AM 78.1 °F - 59.0 °F 52% 30.06 in 10.0 mi ENE 12.7 mph 24.2 mph N/A   Scattered Clouds
6:53 AM 77.0 °F - 60.1 °F 56% 30.09 in 10.0 mi ENE 11.5 mph 23.0 mph N/A   Mostly Cloudy
7:53 AM 77.0 °F - 60.1 °F 56% 30.10 in 10.0 mi NE 12.7 mph 19.6 mph N/A   Mostly Cloudy
8:53 AM 78.1 °F - 57.9 °F 50% 30.12 in 10.0 mi NE 11.5 mph 19.6 mph N/A   Partly Cloudy
9:53 AM 80.1 °F 81.1 °F 61.0 °F 52% 30.13 in 10.0 mi NE 13.8 mph 23.0 mph N/A   Scattered Clouds
10:53 AM 81.0 °F 81.3 °F 59.0 °F 47% 30.14 in 10.0 mi ENE 15.0 mph 23.0 mph N/A   Partly Cloudy
11:53 AM 79.0 °F - 64.0 °F 60% 30.15 in 10.0 mi NNE 16.1 mph 25.3 mph N/A   Scattered Clouds
12:53 PM 78.1 °F - 64.9 °F 64% 30.14 in 10.0 mi NE 21.9 mph 31.1 mph N/A   Mostly Cloudy
1:53 PM 80.1 °F 81.7 °F 64.0 °F 58% 30.14 in 10.0 mi NE 20.7 mph 28.8 mph N/A   Scattered Clouds
2:53 PM 79.0 °F - 64.0 °F 60% 30.14 in 10.0 mi NNE 17.3 mph 27.6 mph N/A   Mostly Cloudy
3:53 PM 80.1 °F 81.7 °F 64.0 °F 58% 30.12 in 10.0 mi NNE 19.6 mph 27.6 mph N/A   Scattered Clouds
4:53 PM 80.1 °F 81.7 °F 64.0 °F 58% 30.12 in 10.0 mi NE 20.7 mph 27.6 mph N/A   Mostly Cloudy
5:53 PM 79.0 °F - 63.0 °F 58% 30.12 in 10.0 mi NE 18.4 mph 27.6 mph N/A   Mostly Cloudy
6:53 PM 78.1 °F - 63.0 °F 60% 30.12 in 10.0 mi NE 12.7 mph 26.5 mph N/A   Overcast
7:53 PM 77.0 °F - 61.0 °F 58% 30.13 in 10.0 mi NE 16.1 mph - N/A   Overcast
8:53 PM 77.0 °F - 59.0 °F 54% 30.15 in 10.0 mi NE 15.0 mph 25.3 mph N/A   Partly Cloudy
9:53 PM 77.0 °F - 57.9 °F 52% 30.16 in 10.0 mi ENE 16.1 mph 24.2 mph N/A   Clear
10:53 PM 77.0 °F - 57.0 °F 50% 30.17 in 10.0 mi NE 15.0 mph 23.0 mph N/A   Mostly Cloudy
11:53 PM 77.0 °F - 63.0 °F 62% 30.16 in 10.0 mi NE 12.7 mph 23.0 mph N/A   Mostly Cloudy